Hallock, MN

2:44 PM CST on February 11, 2016 (GMT -0600)
Hallock Municipal

Weather History for KHCO - August, 2012

Change the Weather History Date:

Tuesday, August 7, 2012

  Actual Average Record
Temperature  
Mean Temperature 63 °F -  
Max Temperature 78 °F 82 °F 102 °F (1988)
Min Temperature 48 °F 57 °F 44 °F (1967)
Degree Days  
Heating Degree Days 2    
Growing Degree Days 13 (Base 50)    
Moisture  
Dew Point 56 °F    
Average Humidity 74    
Maximum Humidity 100    
Minimum Humidity 42    
Precipitation  
Precipitation 0.00 in - - ()
Sea Level Pressure  
Sea Level Pressure 30.03 in    
Wind  
Wind Speed 3 mph (NW)    
Max Wind Speed 12 mph    
Max Gust Speed -    
Visibility 10 miles    
Events Rain , Thunderstorm    
Averages and records for this station are not official NWS values.
T = Trace of Precipitation, MM = Missing Value Source: NWS Daily Summary

Daily Weather History Graph

Daily Weather History Graph

Search for Another Location

Airport or City:

Trip Planner

Search our weather history database for the weather conditions in past years. The results will help you decide how hot, cold, wet, or windy it might be!

Date:

Astronomy

Aug. 07, 2012 Rise Set
Actual Time 6:10 AM CDT 8:55 PM CDT
Civil Twilight 5:34 AM CDT 9:31 PM CDT
Nautical Twilight 4:48 AM CDT 10:17 PM CDT
Astronomical Twilight 3:52 AM CDT 11:11 PM CDT
Moon 10:57 PM CDT (8/7) 12:36 PM CDT (8/7)
Length of Visible Light 15h 57m
Length of Day
14h 45m
Waning Gibbous, 69% of the Moon is Illuminated
Aug 7
Waning Gibbous
Aug 9
Last Quarter
Aug 17
New
Aug 24
First Quarter
Aug 31
Full

Hourly Weather History & Observations

Time (CDT) Temp. Dew Point Humidity Pressure Visibility Wind Dir Wind Speed Gust Speed Precip Events Conditions
12:14 AM 60.8 °F 51.8 °F 72% 30.00 in 10.0 mi North 4.6 mph - N/A   Clear
12:34 AM 60.8 °F 51.8 °F 72% 30.00 in 10.0 mi North 3.5 mph - N/A   Clear
12:54 AM 57.2 °F 51.8 °F 82% 30.01 in 10.0 mi Calm Calm - N/A   Clear
1:14 AM 55.4 °F 53.6 °F 94% 30.01 in 10.0 mi Calm Calm - N/A   Clear
1:34 AM 55.4 °F 51.8 °F 88% 30.01 in 10.0 mi West 3.5 mph - N/A   Clear
1:54 AM 55.4 °F 51.8 °F 88% 30.01 in 10.0 mi Calm Calm - N/A   Clear
2:14 AM 53.6 °F 51.8 °F 94% 30.01 in 10.0 mi Calm Calm - N/A   Clear
2:34 AM 55.4 °F 51.8 °F 88% 30.01 in 10.0 mi NW 3.5 mph - N/A   Clear
2:54 AM 53.6 °F 51.8 °F 94% 30.01 in 10.0 mi NNW 3.5 mph - N/A   Clear
3:14 AM 53.6 °F 51.8 °F 94% 30.01 in 10.0 mi North 3.5 mph - N/A   Clear
3:34 AM 53.6 °F 51.8 °F 94% 30.02 in 10.0 mi NNW 3.5 mph - N/A   Clear
3:54 AM 53.6 °F 51.8 °F 94% 30.02 in 10.0 mi North 4.6 mph - N/A   Clear
4:14 AM 53.6 °F 51.8 °F 94% 30.02 in 10.0 mi North 3.5 mph - N/A   Clear
4:34 AM 55.4 °F 51.8 °F 88% 30.02 in 10.0 mi North 4.6 mph - N/A   Clear
4:54 AM 53.6 °F 51.8 °F 94% 30.03 in 10.0 mi Calm Calm - N/A   Clear
4:59 AM 53.6 °F 51.8 °F 94% 30.03 in 10.0 mi Calm Calm - N/A   Clear
5:34 AM 51.8 °F 50.0 °F 94% 30.03 in 10.0 mi Calm Calm - N/A   Clear
5:54 AM 51.8 °F 51.8 °F 100% 30.03 in 10.0 mi Calm Calm - N/A   Clear
6:14 AM 50.0 °F 50.0 °F 100% 30.04 in 10.0 mi Calm Calm - N/A   Clear
6:34 AM 48.2 °F 48.2 °F 100% 30.04 in 10.0 mi Calm Calm - N/A   Clear
6:54 AM 50.0 °F 50.0 °F 100% 30.05 in 10.0 mi Calm Calm - N/A   Clear
7:14 AM 51.8 °F 51.8 °F 100% 30.06 in 10.0 mi Calm Calm - N/A   Clear
7:34 AM 55.4 °F 53.6 °F 94% 30.06 in 10.0 mi Calm Calm - N/A   Clear
7:54 AM 57.2 °F 55.4 °F 94% 30.06 in 10.0 mi Calm Calm - N/A   Clear
8:14 AM 59.0 °F 55.4 °F 88% 30.07 in 10.0 mi Calm Calm - N/A   Clear
8:34 AM 60.8 °F 55.4 °F 82% 30.08 in 10.0 mi Calm Calm - N/A   Clear
8:54 AM 62.6 °F 57.2 °F 82% 30.08 in 10.0 mi Calm Calm - N/A   Clear
9:14 AM 64.4 °F 59.0 °F 83% 30.08 in 10.0 mi Calm Calm - N/A   Clear
9:34 AM 66.2 °F 59.0 °F 78% 30.07 in 10.0 mi NNE 3.5 mph - N/A   Clear
9:54 AM 69.8 °F 59.0 °F 68% 30.08 in 10.0 mi Calm Calm - N/A   Clear
10:14 AM 69.8 °F 60.8 °F 73% 30.07 in 10.0 mi NNE 3.5 mph - N/A   Clear
10:34 AM 71.6 °F 60.8 °F 69% 30.07 in 10.0 mi Calm Calm - N/A   Clear
10:54 AM 73.4 °F 60.8 °F 65% 30.07 in 10.0 mi North 6.9 mph - N/A   Clear
11:14 AM 73.4 °F 59.0 °F 61% 30.07 in 10.0 mi North 6.9 mph - N/A   Clear
11:34 AM 73.4 °F 59.0 °F 61% 30.06 in 10.0 mi North 8.1 mph - N/A   Clear
11:54 AM 75.2 °F 57.2 °F 53% 30.07 in 10.0 mi NNE 5.8 mph - N/A   Clear
12:14 PM 75.2 °F 57.2 °F 53% 30.06 in 10.0 mi Calm Calm - N/A   Clear
12:35 PM 73.4 °F 57.2 °F 57% 30.05 in 10.0 mi Calm Calm - N/A   Clear
12:54 PM 75.2 °F 57.2 °F 53% 30.05 in 10.0 mi North 10.4 mph - N/A   Scattered Clouds
1:14 PM 75.2 °F 57.2 °F 53% 30.05 in 10.0 mi NNW 3.5 mph - N/A   Scattered Clouds
1:34 PM 75.2 °F 57.2 °F 53% 30.05 in 10.0 mi NNE 6.9 mph - N/A   Clear
1:54 PM 75.2 °F 55.4 °F 50% 30.04 in 10.0 mi NNW 5.8 mph - N/A   Clear
2:14 PM 77.0 °F 57.2 °F 50% 30.03 in 10.0 mi North 8.1 mph - N/A   Scattered Clouds
2:34 PM 77.0 °F 57.2 °F 50% 30.03 in 10.0 mi Calm Calm - N/A   Clear
2:54 PM 77.0 °F 55.4 °F 47% 30.03 in 10.0 mi West 3.5 mph - N/A   Clear
3:14 PM 75.2 °F 55.4 °F 50% 30.03 in 10.0 mi Calm Calm - N/A   Clear
3:34 PM 78.8 °F 53.6 °F 42% 30.02 in 10.0 mi Calm Calm - N/A   Clear
3:54 PM 78.8 °F 55.4 °F 44% 30.01 in 10.0 mi Calm Calm - N/A   Clear
4:14 PM 78.8 °F 55.4 °F 44% 30.00 in 10.0 mi Calm Calm - N/A   Clear
4:34 PM 78.8 °F 55.4 °F 44% 30.00 in 10.0 mi West 3.5 mph - N/A Thunderstorm Clear
4:54 PM 78.8 °F 55.4 °F 44% 29.99 in 10.0 mi SSW 5.8 mph - N/A   Clear
5:14 PM 78.8 °F 53.6 °F 42% 29.99 in 10.0 mi Calm Calm - N/A   Clear
5:34 PM 78.8 °F 55.4 °F 44% 29.99 in 10.0 mi Calm Calm - N/A   Clear
5:54 PM 77.0 °F 57.2 °F 50% 29.99 in 10.0 mi WSW 8.1 mph - N/A   Clear
6:14 PM 77.0 °F 57.2 °F 50% 29.99 in 10.0 mi WSW 4.6 mph - N/A   Clear
6:34 PM 78.8 °F 57.2 °F 47% 29.99 in 10.0 mi WSW 9.2 mph - N/A   Clear
6:54 PM 75.2 °F 57.2 °F 53% 29.99 in 10.0 mi WSW 6.9 mph - N/A   Clear
7:14 PM 75.2 °F 59.0 °F 57% 29.98 in 10.0 mi WSW 5.8 mph - N/A   Clear
7:54 PM 71.6 °F 60.8 °F 69% 30.00 in 10.0 mi WSW 11.5 mph - N/A   Scattered Clouds
8:14 PM 71.6 °F 62.6 °F 73% 30.00 in 10.0 mi WSW 9.2 mph - N/A   Clear
8:34 PM 69.8 °F 62.6 °F 78% 30.00 in 10.0 mi WSW 5.8 mph - N/A Thunderstorm Scattered Clouds
8:54 PM 69.8 °F 62.6 °F 78% 30.00 in 10.0 mi WSW 5.8 mph - N/A   Mostly Cloudy
9:14 PM 68.0 °F 62.6 °F 83% 30.01 in 10.0 mi West 4.6 mph - N/A   Overcast
9:34 PM 68.0 °F 62.6 °F 83% 30.02 in 10.0 mi West 6.9 mph - N/A Rain Light Rain
9:54 PM 66.2 °F 62.6 °F 88% 30.01 in 10.0 mi West 3.5 mph - N/A   Mostly Cloudy
10:14 PM 66.2 °F 62.6 °F 88% 30.02 in 10.0 mi Calm Calm - N/A   Clear
10:54 PM 64.4 °F 62.6 °F 94% 30.02 in 10.0 mi SSW 3.5 mph - N/A   Scattered Clouds
11:14 PM 62.6 °F 62.6 °F 100% 30.02 in 10.0 mi Calm Calm - N/A   Scattered Clouds
11:34 PM 64.4 °F 62.6 °F 94% 30.02 in 10.0 mi Calm Calm - N/A   Mostly Cloudy